Home > Weather > Minot > Past weeks

Flag for U.S.A. Weather for the Past 2 Weeks in Minot, North Dakota, U.S.A.

Now
39 °F

Clear.


Feels Like: 31 °F
Forecast: 30 / 48 °F
Wind: 15 mph from Southwest

Location: Minot International Airport

Current Time: Feb 6, 2016 at 8:00:53 AM

Latest Report: Feb 6, 2016 at 6:54 AM


Visibility: 10 mi

Pressure: 29.78 "Hg

Humidity: 55%

Dew point: 24 °F

Location of MinotLocation

Historic Weather in Minot — Graph

°F

Minot Temperature Yesterday

Maximum temperature yesterday: 40 °F (at 3:54 PM)
Minimum temperature yesterday: 21 °F (at 7:54 AM)
Average temperature yesterday: 30 °F

High & Low Weather Summary for the Past Weeks

 TemperatureHumidityPressure
High47 °F (Jan 29, 12:54 PM)85% (Jan 24, 10:54 PM)30.34 "Hg (Jan 24, 10:54 PM)
Low16 °F (Feb 2, 8:54 PM)42% (Jan 30, 2:54 PM)29.38 "Hg (Jan 29, 4:54 AM)
Average31 °F67%29.90 "Hg
* Reported Jan 22 6:54 AM — Feb 6 6:54 AM, Minot, Weather by CustomWeather, © 2016

Note: Actual official high and low records may vary slightly from our data, if they occured in-between our weather recording intervals... More about our weather records

Advertising

Minot Weather History for the Previous 24 Hours

 ConditionsComfort  
Time TempWeatherWind HumidityBarometerVisibility
6:54 AM
Sat, Feb 6
39 °FClear.15 mph55%29.78 "Hg10 mi
5:54 AM37 °FClear.10 mph57%29.80 "Hg10 mi
4:54 AM36 °FPassing clouds.12 mph57%29.82 "Hg10 mi
3:54 AM36 °FPassing clouds.14 mph57%29.83 "Hg10 mi
2:54 AM33 °FClear.10 mph61%29.88 "Hg10 mi
1:54 AM31 °FClear.13 mph67%29.90 "Hg10 mi
12:54 AM33 °FClear.13 mph61%29.93 "Hg10 mi
11:54 PM
Fri, Feb 5
34 °FClear.10 mph64%29.96 "Hg10 mi
10:54 PM34 °FClear.12 mph61%29.99 "Hg10 mi
9:54 PM31 °FClear.7 mph67%30.04 "Hg10 mi
8:54 PM32 °FClear.8 mph64%30.07 "Hg10 mi
7:54 PM34 °FClear.6 mph59%30.08 "Hg10 mi
6:54 PM34 °FClear.7 mph59%30.10 "Hg10 mi
5:54 PM36 °FClear.7 mph54%30.10 "Hg10 mi
4:54 PM39 °FSunny.8 mph48%30.11 "Hg10 mi
3:54 PM40 °FSunny.15 mph47%30.12 "Hg10 mi
2:54 PM39 °FSunny.15 mph48%30.14 "Hg10 mi
1:54 PM37 °FSunny.15 mph48%30.16 "Hg10 mi
12:54 PM35 °FSunny.12 mph44%30.18 "Hg10 mi
11:54 AM30 °FOvercast.13 mph51%30.20 "Hg10 mi
10:54 AM28 °FPartly sunny.12 mph61%30.22 "Hg10 mi
9:54 AM23 °FPartly sunny.5 mph68%30.22 "Hg9 mi
8:54 AM22 °FPartly sunny.7 mph72%30.23 "Hg9 mi
Weather by CustomWeather, © 2016

See weather overviewHow to use our weather pages